Regional Weather Roundup
Issued by NWS San Angelo, TX

Home | Current Version | Previous Version | Text Only | Print | Product List | Glossary On
Versions: 1 2 3 4 5 6 7 8 9 10 11 12 13 14 15 16 17 18 19 20 21 22 23 24 25 26 27 28 29 30 31 32 33 34 35 36 37 38 39 40 41 42 43 44 45 46 47 48 49 50
000
ASUS44 KSJT 281210
RWRSJT
WEST CENTRAL TEXAS REGIONAL WEATHER ROUNDUP
NATIONAL WEATHER SERVICE SAN ANGELO TX
700 AM CDT THU MAY 28 2015

NOTE: "FAIR" INDICATES FEW OR NO CLOUDS BELOW 12,000 FEET WITH NO
SIGNIFICANT WEATHER AND/OR OBSTRUCTIONS TO VISIBILITY.

TXZ049-054-064>066-071>073-076>078-098-099-113-114-127-128-139-140-
154-155-168>170-281300
...LOCATIONS ACROSS WEST CENTRAL TEXAS...

CITY           SKY/WX    TMP DP  RH WIND       PRES   REMARKS
SAN ANGELO     CLOUDY    73  68  84 S7        30.03R
ABILENE        MOCLDY    72  68  87 S9        30.05R
DYESS AFB      CLOUDY    72  66  82 E3        30.04R
JUNCTION       CLOUDY    73  68  84 SE8       30.04R
SWEETWATER     CLOUDY    72  70  93 SE6       30.09R
BROWNWOOD      PTCLDY    72  70  94 SE8       30.05R
COLEMAN        CLOUDY    71  71 100 S6        30.05R FOG
SONORA         MOCLDY    73  68  83 S15G21    30.08R
OZONA          FAIR      72  64  78 S10G20    30.05S
BRADY          CLEAR     70  68  94 SE7       30.04R
$$

TEXAS PANHANDLE/OKLAHOMA PANHANDLE

CITY           SKY/WX    TMP DP  RH WIND       PRES   REMARKS
AMARILLO       CLEAR     62  54  74 S20       30.06S
BORGER         CLOUDY    64  52  64 NE7       30.08R
CANADIAN       CLOUDY    64  60  85 E9        30.06R
DALHART        MOCLDY    57  54  89 S9        30.07F
DUMAS          CLOUDY    62  55  79 CALM      30.08S
GUYMON         NOT AVBL
HEREFORD       CLOUDY    64  62  93 MISG      30.09S
PAMPA          PTSUNNY   60  53  78 E8        30.11R
PERRYTON       CLOUDY    62  58  87 E8        30.07F
$$

SOUTHERN PANHANDLE/SOUTH PLAINS/ROLLING PLAINS

CITY           SKY/WX    TMP DP  RH WIND       PRES   REMARKS
LUBBOCK        CLOUDY    68  66  93 SE14      30.07R
SNYDER         CLOUDY    69  68  94 E6        30.06R
CHILDRESS      CLEAR     61  58  90 S9        30.01F
SEMINOLE       CLOUDY    67  64  89 E8        30.06S
$$

PERMIAN BASIN

CITY           SKY/WX    TMP DP  RH WIND       PRES   REMARKS
MIDLAND        CLOUDY    72  67  84 SE10      30.03R
ODESSA         CLOUDY    71  65  81 SE6       30.04R
WINK           CLEAR     70  65  84 SE13      29.96F
$$

FAR WEST/SOUTHWEST MOUNTAINS/TRANS PECOS

CITY           SKY/WX    TMP DP  RH WIND       PRES   REMARKS
ALPINE         SUNNY     64  60  85 S5        30.10S
DRYDEN           N/A     74  69  85 S10       29.97R
EL PASO        PTCLDY    72  31  22 S7        30.00R
FORT STOCKTON  CLEAR     70  65  84 SE3       29.99R
GUADALUPE PASS CLEAR     63  54  72 SW12      30.11R
MARFA          CLEAR     55  54  94 NW9       30.11R
PECOS          MOSUNNY   69  64  85 SE9       29.96R
$$

DALLAS/FORT WORTH METROPLEX

CITY           SKY/WX    TMP DP  RH WIND       PRES   REMARKS
DFW AIRPORT    MOCLDY    71  70  96 S10       30.02F
FTW MEACHAM    MOCLDY    74  70  87 S8        30.04R
DAL-EXECUTIVE  PTCLDY    72  70  93 S7        30.03F
GRAND PRAIRIE  CLEAR     73  73 100 S7        30.05S
ADDISON        MOCLDY    73  70  88 S10       30.04F
MESQUITE       SUNNY     72  70  94 S6        30.05S HAZE
LANCASTER      MOSUNNY   71  68  92 S6        30.05F
$$

NORTH CENTRAL TEXAS

CITY           SKY/WX    TMP DP  RH WIND       PRES   REMARKS
SHRMAN/DENISON CLOUDY    74  72  95 S9        30.05R
GAINESVILLE    CLOUDY    72  71  95 S5        30.07R
BRIDGEPORT     PTSUNNY   73  73 100 S8        30.05S
DENTON         CLOUDY    73  71  93 S10       30.04R
WAXAHACHIE     FOG       70  70 100 SE6       30.05F VSB<1/4
GRANBURY       PTSUNNY   74  71  91 SE6       30.05S
$$

WESTERN NORTH TEXAS

CITY           SKY/WX    TMP DP  RH WIND       PRES   REMARKS
WICHITA FALLS  CLOUDY    63  61  93 SW8       30.03R
VERNON         CLOUDY    64  58  81 S10       30.02S
BRECKENRIDGE   CLOUDY    74  72  94 CALM      30.05S
COMANCHE       PTCLDY    70  70 100 SE6       30.05S
$$

CENTRAL AND SOUTH CENTRAL TEXAS

CITY           SKY/WX    TMP DP  RH WIND       PRES   REMARKS
AUSTIN/BERGSTM CLOUDY    73  73 100 E6        30.04R
WACO           MOCLDY    73  70  90 SE8       30.05S
HILLSBORO      MOSUNNY   71  69  93 SE9       30.06S FOG
TEMPLE         CLOUDY    72  66  83 E8        30.06R
KILLEEN-GRAY   PTCLDY    72  70  94 SE6       30.05R
FORT HOOD      MOCLDY    70  70  98 SE7       30.05R FOG
GEORGETOWN     MOCLDY    72  72 100 CALM      30.04S
LAGO VISTA     CLOUDY    73  71  94 SE3       30.06S FOG
SAN MARCOS     CLOUDY    73  72  94 SE7       30.04  FOG
NEW BRAUNFELS  CLOUDY    76  73  91 SE7       30.02R FOG
RANDOLPH AFB   CLOUDY    75  74  98 SE7       30.03R
SAN ANTONIO    CLOUDY    77  73  87 E5        30.04R FOG
STINSON        CLOUDY    76  74  93 E7        30.01R FOG
PLEASANTON     NOT AVBL
LA GRANGE      CLOUDY    74  74  98 SE6       30.03R FOG
GIDDINGS       CLOUDY    73  72  97 E7        30.09R FOG
$$

EAST TEXAS

CITY           SKY/WX    TMP DP  RH WIND       PRES   REMARKS
PARIS          PTCLDY    72  66  83 SE7       30.06S
CLARKSVILLE    NOT AVBL
TYLER          PTCLDY    72  69  90 S6        30.07S
LONGVIEW       CLOUDY    73  71  93 E5        30.08R
PALESTINE      MOSUNNY   70  70 100 CALM      30.09S
NACOGDOCHES    CLEAR     70  70 100 E5        30.09S
$$

TEXAS HILL COUNTRY AND EDWARDS PLATEAU

CITY           SKY/WX    TMP DP  RH WIND       PRES   REMARKS
LLANO          MOSUNNY   70  70 100 SE5       30.08R FOG
HORSESHOE BAY  CLOUDY    72  70  95 SE3       30.05S
KERRVILLE      CLOUDY    73  70  91 SE8       30.05S
FREDERICKSBRG  CLOUDY    72  69  90 S7        30.06R
ROCKSPRINGS    CLOUDY    72  70  94 S17G23    30.07S FOG
HONDO          CLOUDY    75  73  93 E6        30.05R
UVALDE         CLOUDY    73  73  97 E5        30.03R FOG
DEL RIO        CLOUDY    76  71  85 SE14      29.98F
$$

SOUTHEAST TEXAS

CITY           SKY/WX    TMP DP  RH WIND       PRES   REMARKS
COLLEGE STN    PTCLDY    72  70  93 E3        30.06F
CALDWELL       CLOUDY    72  72 100 CALM      30.09S
CROCKETT       NOT AVBL
BRENHAM        CLOUDY    73  73  98 CALM      30.07S FOG
HUNTSVILLE     CLOUDY    72  71  97 CALM      30.08S FOG
CONROE         FOG       70  69  97 E3        30.08S VSB 1/4
HOUSTON BUSH   PTCLDY    71  70  96 CALM      30.07R
HOUSTON HOBBY  PTCLDY    74  72  93 CALM      30.07R
PERLAND        PTCLDY    74  71  91 CALM      30.08R
WHARTON        SUNNY     73  72  97 E6        30.05S FOG
$$

THE UPPER TEXAS COAST

CITY           SKY/WX    TMP DP  RH WIND       PRES   REMARKS
ORANGE         MOSUNNY   71  69  93 CALM      30.11R FOG
PORT ARTHUR    PTCLDY    72  71  97 CALM      30.08R
GALVESTON      CLEAR     77  75  93 SE5       30.08R
ANGLETON       CLOUDY    71  71 100 CALM      30.06R
BAY CITY       CLOUDY    74  74 100 E5        30.04S FOG
$$

TEXAS COASTAL BEND, RIO GRANDE PLAINS DEEP SOUTH TEXAS

CITY           SKY/WX    TMP DP  RH WIND       PRES   REMARKS
VICTORIA       CLOUDY    75  75 100 E7        30.01S FOG
BEEVILLE         N/A     76  76 100 E7        29.99R FOG
ROCKPORT       CLEAR     81  75  82 SE13      29.98S
PORT ARANSAS   PTSUNNY   80  75  85 SE13G20   29.99R
PORT LAVACA    MOSUNNY   77  76  95 SE7       30.02R FOG
CORPUS CHRISTI MOCLDY    79  76  90 SE9       29.97S
KINGSVILLE NAS MOCLDY    80  79  96 SE10      29.97S FOG
COTULLA        CLOUDY    78  74  87 E5        30.00R FOG
LAREDO         MOCLDY    77  75  93 CALM      29.99R FOG
BROWNSVILLE    CLOUDY    80  76  87 SE12      29.97R
PORT ISABEL    CLEAR     79  76  90 SE15      29.97R FOG
HEBBRONVILLE     N/A     77  74  91 SE12G17   29.98R FOG
MCALLEN        LGT RAIN  82  77  84 SE15      29.95R
WESLACO        CLOUDY    79  75  89 SE8       29.95R
FALFURRIAS     CLOUDY    78  75  92 SE8       29.96R
EDINBURG       CLOUDY    81  76  86 SE9       29.96R HAZE
$$



USA.gov is the U.S. government's official web portal to all federal, state and local government web resources and services.